Date,TemperatureHighF,TemperatureAvgF,TemperatureLowF,DewpointHighF,DewpointAvgF,DewpointLowF,HumidityHigh,HumidityAvg,HumidityLow,PressureMaxIn,PressureMinIn,WindSpeedMaxMPH,WindSpeedAvgMPH,GustSpeedMaxMPH,PrecipitationSumIn
2012-11-14,62,48,40,-100,-100,-100,0,0,100,0.00,40.00,0,-999,0,0.00
2012-11-15,62,46,33,-100,-100,-100,0,0,100,0.00,40.00,0,-999,0,0.00
2012-11-16,63,47,39,-100,-100,-100,0,0,100,0.00,40.00,0,-999,0,0.00
2012-11-17,64,47,36,-100,-100,-100,0,0,100,0.00,40.00,0,-999,0,0.00
2012-11-18,64,44,36,-100,-100,-100,0,0,100,0.00,40.00,0,-999,0,0.00
2012-11-19,69,49,38,-100,-100,-100,0,0,100,0.00,40.00,0,-999,0,0.00
2012-11-20,73,54,43,-100,-100,-100,0,0,100,0.00,40.00,0,-999,0,0.00
2012-11-21,75,56,45,-100,-100,-100,0,0,100,0.00,40.00,0,-999,0,0.00
2012-11-22,76,54,41,-100,-100,-100,0,0,100,0.00,40.00,0,-999,0,0.00
2012-11-23,62,56,48,-100,-100,-100,0,0,100,0.00,40.00,0,-999,0,0.00
2012-11-24,60,48,43,-100,-100,-100,0,0,100,0.00,40.00,0,-999,0,0.00
2012-11-25,69,45,31,-100,-100,-100,0,0,100,0.00,40.00,0,-999,0,0.00
2012-11-26,61,56,53,-100,-100,-100,0,0,100,0.00,40.00,0,-999,0,0.00
2012-11-27,63,55,44,-100,-100,-100,0,0,100,0.00,40.00,0,-999,0,0.00
2012-11-28,61,47,37,-100,-100,-100,0,0,100,0.00,40.00,0,-999,0,0.00
2012-11-29,69,47,33,-100,-100,-100,0,0,100,0.00,40.00,0,-999,0,0.00
2012-11-30,76,56,42,-100,-100,-100,0,0,100,0.00,40.00,0,-999,0,0.00
2012-12-1,79,66,59,-100,-100,-100,0,0,100,0.00,40.00,0,-999,0,0.00
2012-12-2,80,67,61,-100,-100,-100,0,0,100,0.00,40.00,0,-999,0,0.00
2012-12-3,73,66,63,-100,-100,-100,0,0,100,0.00,40.00,0,-999,0,0.00
2012-12-4,80,68,60,-100,-100,-100,0,0,100,0.00,40.00,0,-999,0,0.00
2012-12-5,68,60,56,-100,-100,-100,0,0,100,0.00,40.00,0,-999,0,0.00
2012-12-6,65,57,52,-100,-100,-100,0,0,100,0.00,40.00,0,-999,0,0.00
2012-12-7,79,60,50,-100,-100,-100,0,0,100,0.00,40.00,0,-999,0,0.00
2012-12-8,77,69,64,-100,-100,-100,0,0,100,0.00,40.00,0,-999,0,0.00
2012-12-9,74,66,59,-100,-100,-100,0,0,100,0.00,40.00,0,-999,0,0.00
2012-12-10,51,49,44,-100,-100,-100,0,0,100,0.00,40.00,0,-999,0,0.00
2012-12-11,50,45,40,-100,-100,-100,0,0,100,0.00,40.00,0,-999,0,0.00
2012-12-12,54,41,35,-100,-100,-100,0,0,100,0.00,40.00,0,-999,0,0.00
2012-12-13,60,41,31,-100,-100,-100,0,0,100,0.00,40.00,0,-999,0,0.00
2012-12-14,62,49,35,-100,-100,-100,0,0,100,0.00,40.00,0,-999,0,0.00
2012-12-15,81,69,58,-100,-100,-100,0,0,100,0.00,40.00,0,-999,0,0.00
2012-12-16,73,67,62,-100,-100,-100,0,0,100,0.00,40.00,0,-999,0,0.00
2012-12-17,67,60,50,-100,-100,-100,0,0,100,0.00,40.00,0,-999,0,0.00
2012-12-18,76,55,36,-100,-100,-100,0,0,100,0.00,40.00,0,-999,0,0.00
2012-12-19,81,62,51,-100,-100,-100,0,0,100,0.00,40.00,0,-999,0,0.00
2012-12-20,72,57,47,-100,-100,-100,0,0,100,0.00,40.00,0,-999,0,0.00
2012-12-21,72,48,39,-100,-100,-100,0,0,100,0.00,40.00,0,-999,0,0.00
2012-12-22,65,46,36,-100,-100,-100,0,0,100,0.00,40.00,0,-999,0,0.00
2012-12-23,71,63,51,-100,-100,-100,0,0,100,0.00,40.00,0,-999,0,0.00
2012-12-24,73,66,57,-100,-100,-100,0,0,100,0.00,40.00,0,-999,0,0.00
2012-12-25,68,58,43,-100,-100,-100,0,0,100,0.00,40.00,0,-999,0,0.00
2012-12-26,47,41,36,-100,-100,-100,0,0,100,0.00,40.00,0,-999,0,0.00
2012-12-27,51,42,32,-100,-100,-100,0,0,100,0.00,40.00,0,-999,0,0.00
2012-12-28,61,56,42,-100,-100,-100,0,0,100,0.00,40.00,0,-999,0,0.00
2012-12-29,46,41,34,-100,-100,-100,0,0,100,0.00,40.00,0,-999,0,0.00
2012-12-30,52,40,32,-100,-100,-100,0,0,100,0.00,40.00,0,-999,0,0.00
2012-12-31,59,50,41,-100,-100,-100,0,0,100,0.00,40.00,0,-999,0,0.00
2013-1-1,61,54,45,-100,-100,-100,0,0,100,0.00,40.00,0,-999,0,0.00